BIKF

Keflavik International  Airport

Reykjavík, Iceland
Issued Wind Visibility Ceiling Temperature Dew Point Humidity Barometer
Nov-24
16:30 UTC
360°
21 KTS
10,000+ meters Broken
4,700' AGL
-1° C
30° F
-7° C
19° F
64% 30.21" Hg
1023 hPa
VFR
Nov-24
16:00 UTC
360°
22 KTS
Gust 32 KTS
10,000+ meters Broken
4,700' AGL
-1° C
30° F
-7° C
19° F
64% 30.18" Hg
1022 hPa
VFR
Nov-24
15:30 UTC
360°
21 KTS
10,000+ meters Broken
4,300' AGL
C
32° F
-7° C
19° F
60% 30.18" Hg
1022 hPa
VFR
Nov-24
15:00 UTC
360°
22 KTS
10,000+ meters Broken
5,000' AGL
C
32° F
-7° C
19° F
60% 30.18" Hg
1022 hPa
VFR
Nov-24
14:30 UTC
350°
22 KTS
10,000+ meters Broken
4,300' AGL
C
32° F
-7° C
19° F
60% 30.18" Hg
1022 hPa
VFR
Nov-24
14:00 UTC
360°
22 KTS
10,000+ meters Broken
4,400' AGL
C
32° F
-7° C
19° F
60% 30.18" Hg
1022 hPa
VFR
Nov-24
13:30 UTC
360°
20 KTS
10,000+ meters Broken
4,400' AGL
C
32° F
-6° C
21° F
64% 30.18" Hg
1022 hPa
VFR
Nov-24
13:00 UTC
360°
20 KTS
10,000+ meters Broken
4,600' AGL
C
32° F
-6° C
21° F
64% 30.15" Hg
1021 hPa
VFR
Nov-24
12:30 UTC
360°
23 KTS
10,000+ meters Broken
4,600' AGL
C
32° F
-7° C
19° F
60% 30.15" Hg
1021 hPa
VFR
Nov-24
12:00 UTC
360°
23 KTS
10,000+ meters Broken
4,800' AGL
C
32° F
-8° C
18° F
55% 30.15" Hg
1021 hPa
VFR
Nov-24
11:30 UTC
360°
27 KTS
10,000+ meters Broken
4,300' AGL
-1° C
30° F
-7° C
19° F
64% 30.12" Hg
1020 hPa
VFR
Nov-24
11:00 UTC
360°
25 KTS
10,000+ meters Broken
4,100' AGL
C
32° F
-7° C
19° F
60% 30.12" Hg
1020 hPa
VFR
Nov-24
10:30 UTC
360°
24 KTS
10,000+ meters Broken
3,700' AGL
-1° C
30° F
-6° C
21° F
69% 30.09" Hg
1019 hPa
VFR
Nov-24
10:00 UTC
010°
24 KTS
10,000+ meters Broken
4,200' AGL
-1° C
30° F
-7° C
19° F
64% 30.09" Hg
1019 hPa
VFR
Nov-24
09:30 UTC
010°
26 KTS
Gust 36 KTS
10,000+ meters Broken
4,200' AGL
-1° C
30° F
-6° C
21° F
69% 30.09" Hg
1019 hPa
VFR
Nov-24
09:00 UTC
010°
27 KTS
Gust 37 KTS
10,000+ meters Broken
4,300' AGL
-1° C
30° F
-7° C
19° F
64% 30.06" Hg
1018 hPa
VFR
Nov-24
08:30 UTC
360°
26 KTS
Gust 38 KTS
10,000+ meters Broken
4,000' AGL
-1° C
30° F
-7° C
19° F
64% 30.06" Hg
1018 hPa
VFR
Nov-24
08:00 UTC
360°
27 KTS
10,000+ meters Broken
3,700' AGL
-1° C
30° F
-7° C
19° F
64% 30.06" Hg
1018 hPa
VFR
Nov-24
07:30 UTC
360°
24 KTS
Gust 34 KTS
10,000+ meters Broken
3,600' AGL
-1° C
30° F
-6° C
21° F
69% 30.03" Hg
1017 hPa
VFR
Nov-24
07:00 UTC
350°
27 KTS
Gust 38 KTS
10,000+ meters Broken
3,600' AGL
-1° C
30° F
-6° C
21° F
69% 30.03" Hg
1017 hPa
VFR
Nov-24
06:30 UTC
360°
25 KTS
10,000+ meters Broken
3,400' AGL
-1° C
30° F
-5° C
23° F
75% 30.03" Hg
1017 hPa
VFR
Nov-24
06:00 UTC
360°
23 KTS
10,000+ meters Broken
3,300' AGL
-1° C
30° F
-6° C
21° F
69% 30.03" Hg
1017 hPa
VFR
Nov-24
05:30 UTC
360°
27 KTS
10,000+ meters Broken
3,200' AGL
-1° C
30° F
-5° C
23° F
75% 30" Hg
1016 hPa
VFR
Nov-24
05:00 UTC
360°
28 KTS
10,000+ meters Broken
3,100' AGL
-1° C
30° F
-5° C
23° F
75% 30" Hg
1016 hPa
VFR
Nov-24
04:30 UTC
360°
26 KTS
10,000+ meters Broken
3,400' AGL
-1° C
30° F
-5° C
23° F
75% 29.97" Hg
1015 hPa
VFR
Nov-24
04:00 UTC
350°
27 KTS
10,000+ meters Broken
3,200' AGL
-1° C
30° F
-5° C
23° F
75% 29.97" Hg
1015 hPa
VFR
Nov-24
03:30 UTC
360°
29 KTS
Gust 39 KTS
10,000+ meters Broken
3,200' AGL
-1° C
30° F
-5° C
23° F
75% 29.97" Hg
1015 hPa
VFR
Nov-24
03:00 UTC
360°
28 KTS
10,000+ meters Broken
3,200' AGL
-1° C
30° F
-5° C
23° F
75% 29.97" Hg
1015 hPa
VFR
Nov-24
02:30 UTC
360°
29 KTS
10,000+ meters   -1° C
30° F
-5° C
23° F
75% 29.97" Hg
1015 hPa
VFR
Nov-24
02:00 UTC
350°
28 KTS
Gust 39 KTS
10,000+ meters   -1° C
30° F
-5° C
23° F
75% 29.97" Hg
1015 hPa
VFR
Nov-24
01:30 UTC
360°
27 KTS
Gust 38 KTS
10,000+ meters Broken
3,100' AGL
-1° C
30° F
-6° C
21° F
69% 29.94" Hg
1014 hPa
VFR
Nov-24
01:00 UTC
360°
28 KTS
10,000+ meters Broken
3,100' AGL
-1° C
30° F
-6° C
21° F
69% 29.94" Hg
1014 hPa
VFR
Nov-24
00:30 UTC
360°
26 KTS
10,000+ meters Broken
3,300' AGL
-1° C
30° F
-6° C
21° F
69% 29.94" Hg
1014 hPa
VFR
Nov-24
00:00 UTC
360°
24 KTS
Gust 34 KTS
10,000+ meters Broken
3,200' AGL
-1° C
30° F
-6° C
21° F
69% 29.94" Hg
1014 hPa
VFR
Nov-23
23:30 UTC
360°
23 KTS
10,000+ meters   -2° C
28° F
-6° C
21° F
74% 29.94" Hg
1014 hPa
VFR
Nov-23
23:00 UTC
360°
21 KTS
10,000+ meters   -2° C
28° F
-7° C
19° F
69% 29.94" Hg
1014 hPa
VFR
Nov-23
22:30 UTC
360°
18 KTS
10,000+ meters   -2° C
28° F
-6° C
21° F
74% 29.94" Hg
1014 hPa
VFR
Nov-23
22:00 UTC
360°
19 KTS
10,000+ meters Broken
2,800' AGL
-2° C
28° F
-6° C
21° F
74% 29.94" Hg
1014 hPa
MVFR
Nov-23
21:30 UTC
360°
18 KTS
10,000+ meters   -1° C
30° F
-6° C
21° F
69% 29.94" Hg
1014 hPa
VFR
Nov-23
21:00 UTC
010°
24 KTS
10,000+ meters   -1° C
30° F
-7° C
19° F
64% 29.94" Hg
1014 hPa
VFR
Nov-23
20:30 UTC
360°
23 KTS
10,000+ meters Broken
3,700' AGL
-2° C
28° F
-7° C
19° F
69% 29.94" Hg
1014 hPa
VFR
Nov-23
20:00 UTC
360°
24 KTS
10,000+ meters Broken
2,800' AGL
-1° C
30° F
-6° C
21° F
69% 29.94" Hg
1014 hPa
MVFR
Nov-23
19:30 UTC
360°
25 KTS
10,000+ meters Broken
2,800' AGL
-1° C
30° F
-6° C
21° F
69% 29.94" Hg
1014 hPa
MVFR
Nov-23
19:00 UTC
360°
23 KTS
10,000+ meters Broken
2,800' AGL
-1° C
30° F
-6° C
21° F
69% 29.94" Hg
1014 hPa
MVFR
Nov-23
18:30 UTC
360°
22 KTS
10,000+ meters   -2° C
28° F
-7° C
19° F
69% 29.94" Hg
1014 hPa
VFR
Nov-23
18:00 UTC
360°
22 KTS
Gust 32 KTS
10,000+ meters   -2° C
28° F
-7° C
19° F
69% 29.94" Hg
1014 hPa
VFR
Nov-23
17:30 UTC
360°
22 KTS
10,000+ meters Broken
2,800' AGL
-2° C
28° F
-7° C
19° F
69% 29.94" Hg
1014 hPa
MVFR
Nov-23
17:00 UTC
360°
24 KTS
10,000+ meters Broken
2,800' AGL
-2° C
28° F
-7° C
19° F
69% 29.94" Hg
1014 hPa
MVFR